Location: Alessandria
(44.9000°N, 8.6170°E)
Time: 18:11:40
(UTC+02:00)

ISS - Pass Details

Date: 15 May 2021
Orbit: 417 x 422 km, 51.6° (Epoch: 18 June)

Event Time Altitude Azimuth Distance (km) Brightness Sun altitude
Rises 00:23:56 0° 268° (W) 2,363 0.2 -24.9°
Reaches altitude 10° 00:26:10 10° 279° (W) 1,501 -0.7 -25.0°
Maximum altitude 00:29:15 33° 345° (NNW) 739 -2.0 -25.1°
Drops below altitude 10° 00:32:21 10° 51° (NE) 1,508 -0.7 -25.2°
Sets 00:34:36 0° 62° (ENE) 2,375 0.3 -25.3°
